Regional Weather Roundup
Issued by NWS

Home | Current Version | Previous Version | Text Only | Print | Product List | Glossary Off
Versions: 1 2 3 4 5 6 7 8 9 10 11 12 13 14 15 16 17 18 19 20 21 22 23 24 25 26 27 28 29 30 31 32 33 34 35 36 37 38 39 40 41 42 43 44 45 46 47 48 49 50

000
ASUS43 KMKX 230400
RWRWI

WISCONSIN REGIONAL WEATHER ROUNDUP
NATIONAL WEATHER SERVICE MILWAUKEE/SULLIVAN WI
1100 PM CDT TUE APR 22 2014

NOTE: "FAIR" INDICATES FEW OR NO CLOUDS BELOW 12,000 FEET WITH NO
SIGNIFICANT WEATHER AND/OR OBSTRUCTIONS TO VISIBILITY.

WIZ001-002-006>008-014>016-023>028-230500-
NORTHWEST WISCONSIN

CITY           SKY/WX    TMP DP  RH WIND       PRES   REMARKS
SUPERIOR ARPT  CLEAR     34  25  68 CALM      30.10R
ASHLAND        CLEAR    N/A N/A N/A N5        30.12R
HAYWARD        CLEAR     29  22  75 CALM      30.10R
SIREN          CLEAR     35  24  66 CALM      30.10S
RICE LAKE      CLEAR     37  29  74 CALM      30.11S
LADYSMITH      CLEAR     37  30  78 CALM      30.12R
EAU CLAIRE     NOT AVBL
MENOMONIE      CLEAR     42  28  58 CALM      30.10S
NEW RICHMOND   CLEAR     38  30  72 CALM      30.10S
OSCEOLA        CLEAR     37  30  75 CALM      30.12S
$$

WIZ003>005-009-010-017-018-230500-
NORTH CENTRAL WISCONSIN

CITY           SKY/WX    TMP DP  RH WIND       PRES   REMARKS
WOODRUFF       CLEAR     28  15  60 CALM      30.08F
RHINELANDER    CLEAR     30  23  75 CALM      30.09S
EAGLE RIVER    CLEAR     28  25  86 CALM      30.09R
LAND O LAKES   CLEAR     28  25  90 CALM      30.10R
PHILLIPS       CLEAR     31  25  78 CALM      30.09R
TOMAHAWK       CLEAR     26  22  87 CALM      30.09R
MEDFORD        CLEAR     35  28  75 CALM      30.10R
MERRILL        CLEAR     32  26  80 CALM      30.10R
$$

WIZ029-030-035-036-043>047-230500-
CENTRAL WISCONSIN

CITY           SKY/WX    TMP DP  RH WIND       PRES   REMARKS
WAUSAU         CLEAR     36  26  67 CALM      30.09R
MOSINEE        CLEAR     39  27  60 CALM      30.11R
MARSHFIELD     CLEAR     40  25  55 CALM      30.10R
STEVENS POINT  CLEAR     33  25  72 CALM      30.11R
WAUPACA        CLEAR     41  27  56 CALM      30.10R
WAUTOMA        NOT AVBL
WISC RAPIDS    CLEAR     38  25  59 CALM      30.12R
CAMP DOUGLAS   NOT AVBL
$$

WIZ011>013-019>022-031-037>040-048>050-230500-
NORTHEAST WISCONSIN

CITY           SKY/WX    TMP DP  RH WIND       PRES   REMARKS
ANTIGO         CLEAR     32  26  77 N5        30.09R WCI  28
STURGEON BAY   CLEAR     34  25  69 N7        30.09S WCI  28
GREEN BAY      CLEAR     35  27  72 N7        30.10R WCI  29
MANITOWOC      NOT AVBL
APPLETON       PTCLDY    37  27  65 N6        30.10R WCI  33
CLINTONVILLE   CLEAR     41  27  56 N3        30.09S
OSHKOSH        CLEAR     39  28  64 CALM      30.09R
$$

WIZ032>034-041-042-053>061-230500-
SOUTHWEST WISCONSIN

CITY           SKY/WX    TMP DP  RH WIND       PRES   REMARKS
LA CROSSE      CLEAR     47  26  44 CALM      30.10R
SPARTA         CLEAR     37  26  64 CALM      30.11R
VIROQUA        FAIR      42  28  58 NE8       30.08S
BOSCOBEL       CLEAR     41  27  57 NE3       30.10R
PRAIRIE DU CHI CLEAR     47  27  45 CALM      30.08R
PLATTEVILLE    FAIR      44  26  49 CALM      30.08R
$$

WIZ056-057-062-063-064-067-068-230500-
SOUTH CENTRAL WISCONSIN

CITY           SKY/WX    TMP DP  RH WIND       PRES   REMARKS
BARABOO/DELLS  CLEAR     42  25  50 NE3       30.09R
LONE ROCK      NOT AVBL
WATERTOWN      CLEAR     40  28  62 NE5       30.07R
MADISON        CLEAR     42  27  55 N6        30.09R
MIDDLETON      FAIR      38  30  72 NW3       30.09R
MONROE         CLEAR     44  27  51 NE7       30.07R
JANESVILLE     CLEAR     41  30  65 SE3       30.08R
$$

WIZ051-052-058>065-066-070>072-230500-
SOUTHEAST WISCONSIN

CITY           SKY/WX    TMP DP  RH WIND       PRES   REMARKS
MILWAUKEE      PTCLDY    37  30  75 NE9       30.10R WCI  30
WAUKESHA       CLEAR     32  28  86 E3        30.09R
MILWAUKEE/TIMM CLEAR     37  28  70 NE12      30.09R WCI  30
RACINE         CLEAR     37  30  75 NE10      30.10R WCI  30
BURLINGTON     CLEAR     33  28  82 CALM      30.07S
KENOSHA        CLEAR     37  28  70 N3        30.08R
FOND DU LAC    CLEAR     39  29  67 N6        30.09R WCI  35
SHEBOYGAN      CLEAR     38  28  67 N6        30.09R WCI  33
WEST BEND      CLEAR     39  27  60 N6        30.08R WCI  35
JUNEAU         CLEAR     41  26  55 N7        30.10R
$$

LSZ147-162-230500-
LAKE SUPERIOR

STATION/POSITION TIME  TEMP    WIND        PRES    WAVE
                       AIR SEA DIR/SP/G            HT/PER
                 (UTC) (F)     (DEG/KT/KT) (MB)    (FT/S)
DEVILS ISLAND    0300   36     130/  9/ 10 1020.2R
PORT WING        0300   34      CALM  /  3 1019.0R
SAXON HARBOR     0300             CALM     1019.0S
$$

LMZ867-665-643>646-230500-
LAKE MICHIGAN

STATION/POSITION TIME  TEMP    WIND        PRES    WAVE
                       AIR SEA DIR/SP/G            HT/PER
                 (UTC) (F)     (DEG/KT/KT) (MB)    (FT/S)
NORTHPORT PIER   0300   33     310/  9/ 11 1018.6R
SISTER BAY       0309   33     360/  9/ 10   N/A
KEWAUNEE LAKESHO 0300   38     360/  6/  9 1019.3R
SHEBOYGAN LAKESH 0300   38      40/ 12/ 14 1019.3R
PORT WASHINGTON  0300   40      40/ 13/ 17 1019.3
MILWAUKEE LAKESH 0300   40      30/ 14/ 17   N/A
KENOSHA   LAKESH 0300   40      30/  4/  5   N/A
$$

TC  - TEMPERATURE IN CELSIUS
VSB - VISIBILITY IN STATUTE MILES
WCI - WIND CHILL INDEX
HX  - HEAT INDEX




USA.gov is the U.S. government's official web portal to all federal, state and local government web resources and services.